POLYTECH-UNIVERSE 3 (R*)

Last updated on Sun Dec 07 2025 00:03:12 GMT+0000 (Coordinated Universal Time)

1 57191U 23091AB 25340.60318583 .00009598 00000+0 48983-3 0 9991 2 57191 97.5345 34.6282 0017866 79.9719 280.3529 15.16792157134734
UTC large
Height (km)
Speed (km/s)
/
Latitude / Longitude
Inclination (degrees)
Orbital Period (minutes)
Azimuth
Elevation
Range (km)
Doppler Factor

Next 0 passes for location: London (51.5072 / 0.1276)

Sorry there are no passes over London.